Alturas, CA

5:04 AM PDT on May 25, 2017 (GMT -0700)
Alturas Municipal

Weather History for KAAT - December, 2013

Change the Weather History Date:

Sunday, December 15, 2013

  Actual Average Record
Temperature  
Mean Temperature 29 °F 29 °F  
Max Temperature 49 °F 40 °F 62 °F (1962)
Min Temperature 9 °F 19 °F -14 °F (1972)
Degree Days  
Heating Degree Days 36 36  
Month to date heating degree days 714 523  
Since 1 July heating degree days 2459 2333  
Cooling Degree Days 0 0  
Month to date cooling degree days 0 0  
Year to date cooling degree days 280 156  
Moisture  
Dew Point 17 °F    
Average Humidity 69    
Maximum Humidity 100    
Minimum Humidity 37    
Precipitation  
Precipitation 0.00 in 0.06 in 0.70 in (1995)
Month to date precipitation 0.17 0.80  
Year to date precipitation 6.29 13.26  
Sea Level Pressure  
Sea Level Pressure 30.52 in    
Wind  
Wind Speed 1 mph (ESE)    
Max Wind Speed 6 mph    
Max Gust Speed 6 mph    
Visibility 8 miles    
Events      
T = Trace of Precipitation, MM = Missing Value Source: NWS Daily Summary

Daily Weather History Graph

Daily Weather History Graph

Search for Another Location

Airport or City:

Trip Planner

Search our weather history database for the weather conditions in past years. The results will help you decide how hot, cold, wet, or windy it might be!

Date:

Astronomy

Dec. 15, 2013 Rise Set
Actual Time 7:21 AM PST 4:33 PM PST
Civil Twilight 6:50 AM PST 5:04 PM PST
Nautical Twilight 6:15 AM PST 5:39 PM PST
Astronomical Twilight 5:41 AM PST 6:13 PM PST
Moon 3:42 PM PST (12/15) 5:41 AM PST (12/15)
Length of Visible Light 10h 14m
Length of Day
9h 11m
Waxing Gibbous, 98% of the Moon is Illuminated
Dec 15
Waxing Gibbous
Dec 17
Full
Dec 25
Last Quarter
Jan 1
New
Jan 7
First Quarter

Hourly Weather History & Observations

Time (PST) Temp. Windchill Dew Point Humidity Pressure Visibility Wind Dir Wind Speed Gust Speed Precip Events Conditions
12:55 AM 18.0 °F 12.7 °F 14.0 °F 84% 30.55 in 10.0 mi NNW 3.5 mph - N/A   Clear
1:55 AM 14.0 °F - 10.9 °F 88% 30.55 in 6.0 mi Calm Calm - N/A   Clear
2:55 AM 17.1 °F - 14.0 °F 88% 30.53 in 7.0 mi Calm Calm - N/A   Clear
3:55 AM 14.0 °F - 10.9 °F 88% 30.54 in 10.0 mi Calm Calm - N/A   Clear
4:55 AM 12.0 °F - 8.1 °F 84% 30.55 in 10.0 mi Calm Calm - N/A   Clear
5:55 AM 12.9 °F - 12.0 °F 96% 30.57 in 8.0 mi Calm Calm - N/A   Clear
6:55 AM 10.0 °F - 6.1 °F 84% 30.59 in 10.0 mi Calm Calm - N/A   Clear
7:55 AM 12.9 °F - 10.0 °F 88% 30.59 in 9.0 mi Calm Calm - N/A   Clear
8:55 AM 19.9 °F - 16.0 °F 85% 30.59 in 10.0 mi Calm Calm - N/A   Clear
10:55 AM 34.0 °F 31.0 °F 24.1 °F 67% 30.54 in 9.0 mi South 3.5 mph - N/A   Clear
11:55 AM 39.0 °F - 23.0 °F 53% 30.51 in 10.0 mi Calm Calm - N/A   Clear
12:55 PM 44.1 °F - 21.0 °F 40% 30.48 in 10.0 mi Calm Calm - N/A   Clear
1:55 PM 46.9 °F - 21.0 °F 36% 30.46 in 10.0 mi Calm Calm - N/A   Clear
2:55 PM 48.0 °F - 24.1 °F 39% 30.45 in 10.0 mi Calm Calm - N/A   Clear
3:55 PM 46.0 °F 43.1 °F 24.1 °F 42% 30.46 in 10.0 mi SSE 5.8 mph - N/A   Clear
4:55 PM 37.0 °F - 23.0 °F 57% 30.49 in 10.0 mi Calm Calm - N/A   Clear
5:55 PM 30.9 °F - 21.0 °F 67% 30.51 in 10.0 mi Calm Calm - N/A   Clear
6:55 PM 26.1 °F 21.9 °F 19.9 °F 78% 30.56 in 10.0 mi NNE 3.5 mph - N/A   Clear
7:55 PM 21.9 °F - 19.0 °F 89% 30.57 in 5.0 mi Calm Calm - N/A   Clear
8:55 PM 21.0 °F - 17.1 °F 85% 30.57 in 10.0 mi Calm Calm - N/A   Clear
9:55 PM 19.9 °F - 17.1 °F 89% 30.44 in 10.0 mi Calm Calm - N/A   Clear
10:50 PM 19.4 °F - 15.8 °F 86% 30.45 in 1.8 mi Calm Calm - N/A   Clear
10:55 PM 19.9 °F - 16.0 °F 85% 30.54 in 1.5 mi Calm Calm - N/A   Clear
11:00 PM 19.0 °F - 16.0 °F 88% 30.45 in 3.0 mi Calm Calm - N/A   Clear
11:55 PM 16.0 °F - 12.9 °F 88% 30.52 in 10.0 mi Calm Calm - N/A   Clear